Погода в Ялте

Россия / Республика Крым     44°29′47″N   34°10′11″E
темп.,
°C
ветер,
м/с
пор.,
м/с
влажн.,
%
обл.,
%
осадки,
мм/ч
давл.,
гПа
погр.,
м
16 апреля, пт
пт1600:00+7зюз7780100 0.0 1018365
03:00+7з467883 0.0 1017181
06:00+7зсз337224 0.0 101775
09:00+9ю236918 0.0 1018297
12:00+10юз78705 0.0 1018754
15:00+11юз8106419 0.0 1018801
18:00+10зюз67628 0.0 1018294
21:00+7з56709 0.0 1020131
17 апреля, сб
сб1700:00+7зсз3459100 0.0 1020114
03:00+7ссз3359100 0.0 102198
06:00+6ссз2261100 0.0 1021130
09:00+8всв33646 0.0 1023470
12:00+8в657731 0.0 1023664
15:00+8в558152 0.1 1022432
18:00+8в448213 0.0 1022312
21:00+7св4482100 0.0 1022288
18 апреля, вс
вс1800:00+7св4576100 0.0 1020290
03:00+8св5572100 0.0 1018268
06:00+7св4590100 4.9 1017231
09:00+7св568998 6.4 1017279
12:00+9св458584 0.1 1016173
15:00+9всв4487100 0.2 1016210
18:00+10всв448872 0.0 1016147
21:00+9св2390100 0.0 101764
19 апреля, пн
пн1900:00+9св2293100 0.0 101651
03:00+9вюв1295100 0.0 101449
06:00+9в1195100 0.0 101322
09:00+11вюв1288100 0.0 1013154
12:00+10св3396100 4.3 1012106
15:00+11св3494100 8.1 101072
18:00+10в2399100 7.4 100873
21:00+11ссв3496100 15.4 100569
20 апреля, вт
вт2000:00+11з2492100 5.8 1003155
03:00+10юз5998100 6.2 1003318
06:00+9зюз712873 0.0 1002571
09:00+8юз12198495 0.1 10031286
12:00+8юз152191100 0.5 10031436
15:00+8зюз12198591 1.5 10061420
18:00+9з71178100 0.4 1010622
21:00+9з5682100 0.5 1014139